Time,TemperatureF,DewpointF,PressureIn,WindDirection,WindDirectionDegrees,WindSpeedMPH,WindSpeedGustMPH,Humidity,HourlyPrecipIn,Conditions,Clouds,dailyrainin,SolarRadiationWatts/m^2,SoftwareType,DateUTC
2013-03-19 00:02:00,32.0,21.0,-100.00,NE,55,0.0,2.0,62,0.00,,,-99.99,0.000000,,2013-03-19 06:02:00,
2013-03-19 00:12:00,31.0,23.0,-100.00,NE,45,2.0,3.0,70,0.00,,,-99.99,0.000000,,2013-03-19 06:12:00,
2013-03-19 00:21:00,30.0,22.0,-100.00,WSW,242,2.0,3.0,73,0.00,,,-99.99,0.000000,,2013-03-19 06:21:00,
2013-03-19 00:32:00,30.0,23.0,-100.00,WNW,286,2.0,3.0,75,0.00,,,-99.99,0.000000,,2013-03-19 06:32:00,
2013-03-19 00:42:00,30.0,23.0,-100.00,South,188,2.0,3.0,76,0.00,,,-99.99,0.000000,,2013-03-19 06:42:00,
2013-03-19 00:50:00,34.0,22.0,-100.00,SSW,203,3.0,4.0,63,0.00,,,-99.99,0.000000,,2013-03-19 06:50:00,
2013-03-19 00:52:00,31.0,23.0,-100.00,SSW,213,3.0,4.0,71,0.00,,,-99.99,0.000000,,2013-03-19 06:52:00,
2013-03-19 01:01:00,33.0,23.0,-100.00,SW,221,3.0,5.0,68,0.00,,,-99.99,0.000000,,2013-03-19 07:01:00,
2013-03-19 01:12:00,34.0,22.0,-100.00,SSW,203,3.0,4.0,63,0.00,,,-99.99,0.000000,,2013-03-19 07:12:00,
2013-03-19 01:21:00,34.0,22.0,-100.00,SSW,203,3.0,4.0,63,0.00,,,-99.99,0.000000,,2013-03-19 07:21:00,
2013-03-19 01:32:00,34.0,22.0,-100.00,SSW,203,3.0,4.0,63,0.00,,,-99.99,0.000000,,2013-03-19 07:32:00,
2013-03-19 01:42:00,34.0,22.0,-100.00,SSW,203,3.0,4.0,63,0.00,,,-99.99,0.000000,,2013-03-19 07:42:00,
2013-03-19 02:22:00,33.0,23.0,-100.00,SW,218,2.0,3.0,67,0.00,,,-99.99,0.000000,,2013-03-19 08:22:00,
2013-03-19 02:32:00,33.0,22.0,-100.00,South,174,3.0,4.0,63,0.00,,,-99.99,0.000000,,2013-03-19 08:32:00,
2013-03-19 02:42:00,33.0,23.0,-100.00,SW,218,2.0,3.0,66,0.00,,,-99.99,0.000000,,2013-03-19 08:42:00,
2013-03-19 02:52:00,33.0,23.0,-100.00,SW,233,3.0,4.0,67,0.00,,,-99.99,0.000000,,2013-03-19 08:52:00,
2013-03-19 03:02:00,32.0,23.0,-100.00,South,191,2.0,3.0,68,0.00,,,-99.99,0.000000,,2013-03-19 09:02:00,
2013-03-19 03:12:00,32.0,23.0,-100.00,SW,229,3.0,4.0,67,0.00,,,-99.99,0.000000,,2013-03-19 09:12:00,
2013-03-19 03:22:00,33.0,23.0,-100.00,SSW,210,3.0,4.0,66,0.00,,,-99.99,0.000000,,2013-03-19 09:22:00,
2013-03-19 03:32:00,33.0,23.0,-100.00,SW,218,2.0,3.0,66,0.00,,,-99.99,0.000000,,2013-03-19 09:32:00,
2013-03-19 03:42:00,33.0,24.0,-100.00,SW,236,2.0,3.0,69,0.00,,,-99.99,0.000000,,2013-03-19 09:42:00,
2013-03-19 03:52:00,32.0,23.0,-100.00,WSW,241,3.0,3.0,70,0.00,,,-99.99,0.000000,,2013-03-19 09:52:00,
2013-03-19 04:03:00,31.0,23.0,-100.00,SSW,213,3.0,3.0,71,0.00,,,-99.99,0.000000,,2013-03-19 10:03:00,
2013-03-19 04:12:00,31.0,23.0,-100.00,SSW,212,3.0,3.0,73,0.00,,,-99.99,0.000000,,2013-03-19 10:12:00,
2013-03-19 04:22:00,30.0,23.0,-100.00,SW,234,3.0,3.0,76,0.00,,,-99.99,0.000000,,2013-03-19 10:22:00,
2013-03-19 04:32:00,30.0,24.0,-100.00,WSW,244,2.0,3.0,78,0.00,,,-99.99,0.000000,,2013-03-19 10:32:00,
2013-03-19 04:41:00,30.0,24.0,-100.00,SSW,212,3.0,3.0,77,0.00,,,-99.99,0.000000,,2013-03-19 10:41:00,
2013-03-19 04:52:00,30.0,23.0,-100.00,SSW,206,2.0,3.0,76,0.00,,,-99.99,0.000000,,2013-03-19 10:52:00,
2013-03-19 05:02:00,30.0,23.0,-100.00,SW,230,3.0,3.0,76,0.00,,,-99.99,0.000000,,2013-03-19 11:02:00,
2013-03-19 05:11:00,30.0,24.0,-100.00,SW,221,2.0,3.0,76,0.00,,,-99.99,0.000000,,2013-03-19 11:11:00,
2013-03-19 05:22:00,30.0,24.0,-100.00,SSW,213,2.0,3.0,76,0.00,,,-99.99,0.000000,,2013-03-19 11:22:00,
2013-03-19 05:32:00,31.0,24.0,-100.00,SSW,212,2.0,3.0,76,0.00,,,-99.99,0.000000,,2013-03-19 11:32:00,
2013-03-19 05:42:00,31.0,23.0,-100.00,SW,217,3.0,4.0,73,0.00,,,-99.99,0.000000,,2013-03-19 11:42:00,
2013-03-19 05:52:00,31.0,23.0,-100.00,East,82,1.0,2.0,74,0.00,,,-99.99,0.000000,,2013-03-19 11:52:00,
2013-03-19 06:02:00,31.0,24.0,-100.00,East,81,1.0,2.0,76,0.00,,,-99.99,0.000000,,2013-03-19 12:02:00,
2013-03-19 06:12:00,30.0,24.0,-100.00,WNW,293,1.0,2.0,77,0.00,,,-99.99,0.000000,,2013-03-19 12:12:00,
2013-03-19 06:22:00,30.0,24.0,-100.00,WNW,293,1.0,2.0,77,0.00,,,-99.99,0.000000,,2013-03-19 12:22:00,
2013-03-19 07:23:00,29.0,23.0,-100.00,SSW,207,2.0,3.0,76,0.00,,,-99.99,0.000000,,2013-03-19 13:23:00,
2013-03-19 07:33:00,29.0,23.0,-100.00,SW,214,2.0,3.0,76,0.00,,,-99.99,0.000000,,2013-03-19 13:33:00,
2013-03-19 07:42:00,29.0,22.0,-100.00,SW,227,1.0,2.0,76,0.00,,,-99.99,1.000000,,2013-03-19 13:42:00,
2013-03-19 07:52:00,29.0,22.0,-100.00,WNW,290,2.0,3.0,77,0.00,,,-99.99,2.000000,,2013-03-19 13:52:00,
2013-03-19 08:01:00,28.0,21.0,-100.00,WNW,291,2.0,3.0,74,0.00,,,-99.99,8.000000,,2013-03-19 14:01:00,
2013-03-19 08:12:00,29.0,21.0,-100.00,West,264,2.0,4.0,72,0.00,,,-99.99,24.000000,,2013-03-19 14:12:00,
2013-03-19 08:21:00,28.0,21.0,-100.00,NW,326,3.0,4.0,73,0.00,,,-99.99,41.000000,,2013-03-19 14:21:00,
2013-03-19 08:32:00,29.0,20.0,-100.00,WNW,296,3.0,4.0,68,0.00,,,-99.99,67.000000,,2013-03-19 14:32:00,
2013-03-19 08:42:00,30.0,20.0,-100.00,South,183,2.0,3.0,66,0.00,,,-99.99,92.000000,,2013-03-19 14:42:00,
2013-03-19 08:51:00,30.0,20.0,-100.00,South,183,2.0,3.0,66,0.00,,,-99.99,92.000000,,2013-03-19 14:51:00,
2013-03-19 09:02:00,34.0,21.0,-100.00,NW,318,3.0,3.0,58,0.00,,,-99.99,135.000000,,2013-03-19 15:02:00,
2013-03-19 09:12:00,37.0,22.0,-100.00,NW,319,4.0,5.0,54,0.00,,,-99.99,158.000000,,2013-03-19 15:12:00,
2013-03-19 09:21:00,38.0,21.0,-100.00,NW,318,3.0,5.0,49,0.00,,,-99.99,179.000000,,2013-03-19 15:21:00,
2013-03-19 09:33:00,40.0,23.0,-100.00,WSW,243,3.0,4.0,51,0.00,,,-99.99,218.000000,,2013-03-19 15:33:00,
2013-03-19 09:43:00,41.0,16.0,-100.00,SSW,209,4.0,6.0,36,0.00,,,-99.99,236.000000,,2013-03-19 15:43:00,
2013-03-19 09:52:00,41.0,16.0,-100.00,SSW,209,4.0,6.0,36,0.00,,,-99.99,236.000000,,2013-03-19 15:52:00,
2013-03-19 10:03:00,42.0,16.0,-100.00,ESE,112,5.0,7.0,34,0.00,,,-99.99,273.000000,,2013-03-19 16:03:00,
2013-03-19 10:12:00,42.0,16.0,-100.00,SE,126,5.0,7.0,34,0.00,,,-99.99,309.000000,,2013-03-19 16:12:00,
2013-03-19 10:23:00,43.0,17.0,-100.00,East,100,5.0,7.0,36,0.00,,,-99.99,344.000000,,2013-03-19 16:23:00,
2013-03-19 10:33:00,43.0,15.0,-100.00,ENE,69,4.0,7.0,31,0.00,,,-99.99,344.000000,,2013-03-19 16:33:00,
2013-03-19 10:43:00,43.0,16.0,-100.00,ENE,67,4.0,7.0,33,0.00,,,-99.99,393.000000,,2013-03-19 16:43:00,
2013-03-19 10:50:00,46.0,15.0,-100.00,SE,125,4.0,7.0,29,0.00,,,-99.99,533.000000,,2013-03-19 16:50:00,
2013-03-19 10:53:00,44.0,16.0,-100.00,East,97,4.0,6.0,32,0.00,,,-99.99,502.000000,,2013-03-19 16:53:00,
2013-03-19 11:02:00,45.0,16.0,-100.00,South,180,4.0,6.0,30,0.00,,,-99.99,551.000000,,2013-03-19 17:02:00,
2013-03-19 11:13:00,46.0,15.0,-100.00,SE,125,4.0,7.0,29,0.00,,,-99.99,533.000000,,2013-03-19 17:13:00,
2013-03-19 11:23:00,46.0,15.0,-100.00,SE,125,4.0,7.0,29,0.00,,,-99.99,533.000000,,2013-03-19 17:23:00,
2013-03-19 11:34:00,46.0,15.0,-100.00,SE,125,4.0,7.0,29,0.00,,,-99.99,533.000000,,2013-03-19 17:34:00,
2013-03-19 11:43:00,46.0,15.0,-100.00,SE,125,4.0,7.0,29,0.00,,,-99.99,533.000000,,2013-03-19 17:43:00,
2013-03-19 12:23:00,50.0,12.0,-100.00,ESE,115,4.0,7.0,22,0.00,,,-99.99,794.000000,,2013-03-19 18:23:00,
2013-03-19 12:34:00,49.0,12.0,-100.00,SSW,207,4.0,8.0,22,0.00,,,-99.99,810.000000,,2013-03-19 18:34:00,
2013-03-19 12:43:00,50.0,8.0,-100.00,South,176,4.0,7.0,18,0.00,,,-99.99,844.000000,,2013-03-19 18:43:00,
2013-03-19 12:53:00,50.0,8.0,-100.00,South,176,4.0,7.0,18,0.00,,,-99.99,844.000000,,2013-03-19 18:53:00,
2013-03-19 13:02:00,52.0,13.0,-100.00,SSE,161,4.0,8.0,21,0.00,,,-99.99,848.000000,,2013-03-19 19:02:00,
2013-03-19 13:12:00,51.0,13.0,-100.00,ESE,103,5.0,9.0,21,0.00,,,-99.99,853.000000,,2013-03-19 19:12:00,
2013-03-19 13:21:00,51.0,9.0,-100.00,SE,146,5.0,8.0,18,0.00,,,-99.99,847.000000,,2013-03-19 19:21:00,
2013-03-19 13:32:00,52.0,12.0,-100.00,East,88,4.0,8.0,20,0.00,,,-99.99,868.000000,,2013-03-19 19:32:00,
2013-03-19 13:42:00,51.0,9.0,-100.00,ENE,74,5.0,8.0,18,0.00,,,-99.99,885.000000,,2013-03-19 19:42:00,
2013-03-19 13:52:00,52.0,10.0,-100.00,East,101,5.0,8.0,18,0.00,,,-99.99,886.000000,,2013-03-19 19:52:00,
2013-03-19 14:02:00,52.0,6.0,-100.00,ESE,122,4.0,6.0,15,0.00,,,-99.99,890.000000,,2013-03-19 20:02:00,
2013-03-19 14:11:00,53.0,8.0,-100.00,SE,126,4.0,7.0,16,0.00,,,-99.99,872.000000,,2013-03-19 20:11:00,
2013-03-19 14:22:00,52.0,11.0,-100.00,ESE,103,4.0,7.0,19,0.00,,,-99.99,876.000000,,2013-03-19 20:22:00,
2013-03-19 14:32:00,54.0,4.0,-100.00,ESE,121,4.0,6.0,13,0.00,,,-99.99,882.000000,,2013-03-19 20:32:00,
2013-03-19 14:42:00,55.0,8.0,-100.00,SE,131,4.0,6.0,15,0.00,,,-99.99,889.000000,,2013-03-19 20:42:00,
2013-03-19 14:52:00,54.0,6.0,-100.00,SSE,166,4.0,8.0,14,0.00,,,-99.99,892.000000,,2013-03-19 20:52:00,
2013-03-19 15:01:00,54.0,1.0,-100.00,East,87,4.0,8.0,11,0.00,,,-99.99,849.000000,,2013-03-19 21:01:00,
2013-03-19 15:11:00,54.0,3.0,-100.00,ENE,78,4.0,6.0,12,0.00,,,-99.99,835.000000,,2013-03-19 21:11:00,
2013-03-19 15:22:00,54.0,6.0,-100.00,SSE,159,3.0,6.0,14,0.00,,,-99.99,799.000000,,2013-03-19 21:22:00,
2013-03-19 15:33:00,55.0,8.0,-100.00,WSW,238,4.0,7.0,15,0.00,,,-99.99,764.000000,,2013-03-19 21:33:00,
2013-03-19 15:42:00,55.0,13.0,-100.00,ENE,68,5.0,9.0,19,0.00,,,-99.99,750.000000,,2013-03-19 21:42:00,
2013-03-19 15:50:00,56.0,4.0,-100.00,East,101,4.0,8.0,12,0.00,,,-99.99,716.000000,,2013-03-19 21:50:00,
2013-03-19 15:52:00,56.0,10.0,-100.00,East,86,5.0,9.0,16,0.00,,,-99.99,760.000000,,2013-03-19 21:52:00,
2013-03-19 16:02:00,55.0,7.0,-100.00,East,91,5.0,8.0,14,0.00,,,-99.99,731.000000,,2013-03-19 22:02:00,
2013-03-19 16:12:00,56.0,4.0,-100.00,East,101,4.0,8.0,12,0.00,,,-99.99,716.000000,,2013-03-19 22:12:00,
2013-03-19 16:22:00,56.0,4.0,-100.00,East,101,4.0,8.0,12,0.00,,,-99.99,716.000000,,2013-03-19 22:22:00,
2013-03-19 16:32:00,56.0,4.0,-100.00,East,101,4.0,8.0,12,0.00,,,-99.99,716.000000,,2013-03-19 22:32:00,
2013-03-19 16:43:00,56.0,4.0,-100.00,East,101,4.0,8.0,12,0.00,,,-99.99,716.000000,,2013-03-19 22:43:00,
2013-03-19 17:22:00,56.0,-2.0,-100.00,SSE,163,6.0,10.0,9,0.00,,,-99.99,518.000000,,2013-03-19 23:22:00,
2013-03-19 17:33:00,55.0,-2.0,-100.00,ESE,111,6.0,9.0,9,0.00,,,-99.99,487.000000,,2013-03-19 23:33:00,
2013-03-19 17:43:00,55.0,-5.0,-100.00,NE,56,6.0,9.0,8,0.00,,,-99.99,454.000000,,2013-03-19 23:43:00,
2013-03-19 17:52:00,56.0,-2.0,-100.00,ESE,104,5.0,8.0,9,0.00,,,-99.99,419.000000,,2013-03-19 23:52:00,
2013-03-19 18:02:00,55.0,-5.0,-100.00,SE,137,5.0,7.0,8,0.00,,,-99.99,382.000000,,2013-03-20 00:02:00,
2013-03-19 18:12:00,55.0,-5.0,-100.00,ENE,68,5.0,8.0,8,0.00,,,-99.99,350.000000,,2013-03-20 00:12:00,
2013-03-19 18:21:00,54.0,-8.0,-100.00,East,89,5.0,8.0,7,0.00,,,-99.99,313.000000,,2013-03-20 00:21:00,
2013-03-19 18:32:00,54.0,-6.0,-100.00,East,91,5.0,7.0,8,0.00,,,-99.99,278.000000,,2013-03-20 00:32:00,
2013-03-19 18:42:00,54.0,-3.0,-100.00,East,88,5.0,8.0,9,0.00,,,-99.99,242.000000,,2013-03-20 00:42:00,
2013-03-19 18:52:00,54.0,-4.0,-100.00,South,176,5.0,8.0,9,0.00,,,-99.99,207.000000,,2013-03-20 00:52:00,
2013-03-19 19:02:00,53.0,-4.0,-100.00,SSW,199,6.0,7.0,9,0.00,,,-99.99,168.000000,,2013-03-20 01:02:00,
2013-03-19 19:12:00,52.0,-3.0,-100.00,WNW,282,5.0,7.0,10,0.00,,,-99.99,133.000000,,2013-03-20 01:12:00,
2013-03-19 19:21:00,50.0,-1.0,-100.00,NW,305,4.0,6.0,12,0.00,,,-99.99,31.000000,,2013-03-20 01:21:00,
2013-03-19 19:32:00,48.0,0.0,-100.00,WNW,289,4.0,5.0,13,0.00,,,-99.99,26.000000,,2013-03-20 01:32:00,
2013-03-19 19:42:00,47.0,-1.0,-100.00,NW,323,4.0,5.0,13,0.00,,,-99.99,18.000000,,2013-03-20 01:42:00,
2013-03-19 19:52:00,47.0,-1.0,-100.00,NW,323,4.0,5.0,13,0.00,,,-99.99,18.000000,,2013-03-20 01:52:00,
2013-03-19 20:02:00,45.0,0.0,-100.00,WNW,291,3.0,4.0,15,0.00,,,-99.99,2.000000,,2013-03-20 02:02:00,
2013-03-19 20:11:00,43.0,2.0,-100.00,WNW,282,3.0,4.0,17,0.00,,,-99.99,1.000000,,2013-03-20 02:11:00,
2013-03-19 20:21:00,41.0,8.0,-100.00,West,279,3.0,3.0,25,0.00,,,-99.99,0.000000,,2013-03-20 02:21:00,
2013-03-19 20:32:00,39.0,10.0,-100.00,WSW,258,2.0,3.0,30,0.00,,,-99.99,0.000000,,2013-03-20 02:32:00,
2013-03-19 20:42:00,40.0,2.0,-100.00,SSW,211,3.0,6.0,20,0.00,,,-99.99,0.000000,,2013-03-20 02:42:00,
2013-03-19 20:50:00,38.0,8.0,-100.00,SW,229,3.0,4.0,29,0.00,,,-99.99,0.000000,,2013-03-20 02:50:00,
2013-03-19 20:52:00,41.0,0.0,-100.00,South,190,4.0,5.0,17,0.00,,,-99.99,0.000000,,2013-03-20 02:52:00,
2013-03-19 21:01:00,39.0,2.0,-100.00,SW,219,3.0,4.0,20,0.00,,,-99.99,0.000000,,2013-03-20 03:01:00,
2013-03-19 21:12:00,38.0,8.0,-100.00,SW,229,3.0,4.0,29,0.00,,,-99.99,0.000000,,2013-03-20 03:12:00,
2013-03-19 21:21:00,38.0,8.0,-100.00,SW,229,3.0,4.0,29,0.00,,,-99.99,0.000000,,2013-03-20 03:21:00,
2013-03-19 21:33:00,38.0,8.0,-100.00,SW,229,3.0,4.0,29,0.00,,,-99.99,0.000000,,2013-03-20 03:33:00,
2013-03-19 21:42:00,38.0,8.0,-100.00,SW,229,3.0,4.0,29,0.00,,,-99.99,0.000000,,2013-03-20 03:42:00,
2013-03-19 22:23:00,31.0,11.0,-100.00,WSW,255,2.0,3.0,43,0.00,,,-99.99,0.000000,,2013-03-20 04:23:00,
2013-03-19 22:32:00,31.0,10.0,-100.00,South,178,0.0,1.0,40,0.00,,,-99.99,0.000000,,2013-03-20 04:32:00,
2013-03-19 22:43:00,31.0,10.0,-100.00,SSE,162,2.0,3.0,41,0.00,,,-99.99,0.000000,,2013-03-20 04:43:00,
2013-03-19 22:52:00,31.0,10.0,-100.00,South,174,2.0,3.0,41,0.00,,,-99.99,0.000000,,2013-03-20 04:52:00,
2013-03-19 23:02:00,31.0,11.0,-100.00,SSW,196,3.0,4.0,42,0.00,,,-99.99,0.000000,,2013-03-20 05:02:00,
2013-03-19 23:12:00,31.0,14.0,-100.00,SW,229,3.0,4.0,48,0.00,,,-99.99,0.000000,,2013-03-20 05:12:00,
2013-03-19 23:22:00,31.0,14.0,-100.00,West,269,3.0,4.0,49,0.00,,,-99.99,0.000000,,2013-03-20 05:22:00,
2013-03-19 23:32:00,32.0,10.0,-100.00,WSW,256,3.0,4.0,40,0.00,,,-99.99,0.000000,,2013-03-20 05:32:00,
2013-03-19 23:41:00,35.0,10.0,-100.00,SSW,193,3.0,5.0,35,0.00,,,-99.99,0.000000,,2013-03-20 05:41:00,
2013-03-19 23:52:00,35.0,10.0,-100.00,South,185,3.0,4.0,34,0.00,,,-99.99,0.000000,,2013-03-20 05:52:00,